User: anonymous   Login
Location: Vancouver
(49.2500°N, 123.1330°W)
Time: 18:59:20
(UTC-07:00)
Language:

Cosmos 1864 Rocket - Orbit

View from above orbital plane
View from above orbital plane
View from above satellite
View from above satellite

Ground track
Ground track

The orbit data is extracted from the following two-line orbital elements,

1 18161U 87057B   16148.91039207 +.00000078 +00000-0 +63527-4 0  9997
2 18161 082.9338 358.6438 0030212 313.7093 136.4607 13.76936920430946
Epoch (UTC): 27 May 2016 21:50:57
Eccentricity: 0.0030212
inclination: 82.9338°
perigee height: 952 km
apogee height: 997 km
right ascension of ascending node: 358.6438°
argument of perigee: 313.7093°
revolutions per day: 13.76936920
mean anomaly at epoch: 136.4607°
orbit number at epoch: 43094

The dashed part of the orbit path shows where the satellite is in the earth's shadow,  

DLR